| time (UTC) | temp F | wind direction | speed MPH | gust MPH | rain 1hr in | rain 24hr in | rain mn in | humidity % | barometer mb |
| 20260505153004 | 74 | 213 | 5.0 | 10.0 | 0.00 | 0.00 | 0.00 | 32 | 1006.3 |
| 20260505152003 | 73 | 228 | 5.0 | 13.0 | 0.00 | 0.00 | 0.00 | 35 | 1006.0 |
| 20260505151003 | 74 | 194 | 4.0 | 11.0 | 0.00 | 0.00 | 0.00 | 34 | 1006.3 |
| 20260505125004 | 58 | 184 | 2.0 | 4.0 | 0.00 | 0.00 | 0.00 | 64 | 1006.6 |
| 20260505124003 | 57 | 195 | 2.0 | 3.0 | 0.00 | 0.00 | 0.00 | 63 | 1006.6 |
| 20260505123003 | 57 | 178 | 1.0 | 3.0 | 0.00 | 0.00 | 0.00 | 64 | 1007.0 |
| 20260505122004 | 56 | 176 | 1.0 | 3.0 | 0.00 | 0.00 | 0.00 | 67 | 1007.0 |
| 20260505121003 | 55 | 190 | 1.0 | 2.0 | 0.00 | 0.01 | 0.00 | 68 | 1006.6 |
| 20260505120004 | 54 | 199 | 1.0 | 2.0 | 0.00 | 0.01 | 0.00 | 72 | 1007.0 |
| 20260505115003 | 52 | 196 | 1.0 | 4.0 | 0.00 | 0.01 | 0.00 | 75 | 1007.0 |
| 20260505114003 | 51 | 168 | 1.0 | 2.0 | 0.00 | 0.01 | 0.00 | 75 | 1007.0 |
| 20260505113004 | 49 | 187 | 1.0 | 3.0 | 0.00 | 0.01 | 0.00 | 78 | 1007.0 |
| 20260505112003 | 49 | 174 | 1.0 | 4.0 | 0.00 | 0.01 | 0.00 | 79 | 1007.0 |
| 20260505111003 | 48 | 187 | 2.0 | 4.0 | 0.00 | 0.01 | 0.00 | 82 | 1007.3 |
| 20260505102004 | 44 | 189 | 0.0 | 2.0 | 0.00 | 0.01 | 0.00 | 89 | 1007.0 |
| 20260505101003 | 44 | 190 | 0.0 | 1.0 | 0.00 | 0.01 | 0.00 | 90 | 1006.6 |
| 20260505100003 | 44 | 207 | 0.0 | 1.0 | 0.00 | 0.01 | 0.00 | 91 | 1006.6 |
| 20260505095004 | 44 | 221 | 0.0 | 1.0 | 0.00 | 0.01 | 0.00 | 91 | 1006.6 |
| 20260505094003 | 43 | 0 | 0.0 | 0.0 | 0.00 | 0.01 | 0.00 | 93 | 1006.6 |
| 20260505093003 | 42 | 209 | 0.0 | 1.0 | 0.00 | 0.01 | 0.00 | 94 | 1006.3 |
| 20260505092004 | 42 | 205 | 0.0 | 2.0 | 0.00 | 0.01 | 0.00 | 94 | 1006.3 |
| 20260505091003 | 42 | 0 | 0.0 | 0.0 | 0.00 | 0.01 | 0.00 | 93 | 1006.0 |
| 20260505090004 | 43 | 155 | 0.0 | 2.0 | 0.00 | 0.01 | 0.00 | 93 | 1006.6 |
| 20260505085003 | 43 | 213 | 0.0 | 3.0 | 0.00 | 0.01 | 0.00 | 93 | 1006.6 |
| 20260505084003 | 42 | 188 | 0.0 | 1.0 | 0.00 | 0.01 | 0.00 | 93 | 1006.6 |
| 20260505083004 | 42 | 0 | 0.0 | 0.0 | 0.00 | 0.01 | 0.00 | 92 | 1006.6 |
| 20260505082003 | 43 | 0 | 0.0 | 0.0 | 0.00 | 0.01 | 0.00 | 92 | 1006.6 |
| 20260505081004 | 43 | 0 | 0.0 | 0.0 | 0.00 | 0.02 | 0.00 | 92 | 1006.6 |
| 20260505080004 | 43 | 0 | 0.0 | 0.0 | 0.00 | 0.02 | 0.00 | 92 | 1006.6 |
| 20260505075003 | 43 | 0 | 0.0 | 0.0 | 0.00 | 0.02 | 0.00 | 91 | 1006.3 |
| 20260505074003 | 43 | 0 | 0.0 | 0.0 | 0.00 | 0.03 | 0.00 | 92 | 1006.6 |
| 20260505073003 | 43 | 0 | 0.0 | 0.0 | 0.00 | 0.04 | 0.00 | 92 | 1006.6 |
| 20260505072004 | 42 | 0 | 0.0 | 0.0 | 0.00 | 0.05 | 0.00 | 92 | 1006.6 |
| 20260505071003 | 43 | 0 | 0.0 | 0.0 | 0.00 | 0.06 | 0.00 | 91 | 1006.6 |
| 20260505070004 | 43 | 188 | 0.0 | 1.0 | 0.00 | 0.08 | 0.00 | 91 | 1006.3 |
| 20260505065003 | 43 | 203 | 0.0 | 2.0 | 0.00 | 0.09 | 0.00 | 90 | 1006.6 |
| 20260505064004 | 43 | 191 | 0.0 | 1.0 | 0.00 | 0.11 | 0.00 | 89 | 1006.6 |
| 20260505063003 | 44 | 191 | 0.0 | 1.0 | 0.00 | 0.13 | 0.00 | 88 | 1006.3 |
| 20260505062004 | 45 | 205 | 0.0 | 2.0 | 0.00 | 0.14 | 0.00 | 86 | 1006.3 |
| 20260505061003 | 45 | 202 | 0.0 | 3.0 | 0.00 | 0.16 | 0.00 | 86 | 1006.0 |
| 20260505060004 | 45 | 199 | 0.0 | 2.0 | 0.00 | 0.18 | 0.00 | 86 | 1005.6 |
| 20260505055003 | 45 | 209 | 0.0 | 2.0 | 0.00 | 0.19 | 0.00 | 85 | 1006.0 |
| 20260505054003 | 45 | 204 | 1.0 | 6.0 | 0.00 | 0.21 | 0.00 | 85 | 1005.6 |
| 20260505053003 | 45 | 223 | 1.0 | 3.0 | 0.00 | 0.23 | 0.00 | 85 | 1006.0 |
| 20260505052003 | 45 | 214 | 1.0 | 6.0 | 0.00 | 0.25 | 0.00 | 84 | 1006.0 |
| 20260505051003 | 45 | 237 | 0.0 | 3.0 | 0.00 | 0.26 | 0.00 | 85 | 1005.6 |
| 20260505041003 | 46 | 260 | 1.0 | 4.0 | 0.00 | 0.35 | 0.00 | 82 | 1005.3 |
| 20260505040004 | 46 | 238 | 1.0 | 6.0 | 0.00 | 0.36 | 0.00 | 81 | 1005.3 |
| 20260505035004 | 46 | 219 | 1.0 | 4.0 | 0.00 | 0.37 | 0.00 | 81 | 1005.3 |
| 20260505034004 | 46 | 226 | 1.0 | 6.0 | 0.00 | 0.38 | 0.00 | 80 | 1005.3 |
| 20260505033003 | 46 | 247 | 1.0 | 4.0 | 0.00 | 0.38 | 0.00 | 81 | 1004.9 |
| 20260505032003 | 46 | 243 | 1.0 | 6.0 | 0.00 | 0.38 | 0.00 | 80 | 1004.9 |
| 20260505031004 | 46 | 244 | 1.0 | 7.0 | 0.00 | 0.38 | 0.00 | 79 | 1004.9 |
| 20260505030004 | 47 | 261 | 1.0 | 6.0 | 0.00 | 0.38 | 0.00 | 79 | 1004.6 |
| 20260505025004 | 47 | 268 | 2.0 | 8.0 | 0.00 | 0.38 | 0.38 | 78 | 1004.6 |
| 20260505024004 | 47 | 269 | 2.0 | 8.0 | 0.00 | 0.38 | 0.38 | 77 | 1004.3 |
| 20260505023003 | 47 | 269 | 2.0 | 8.0 | 0.00 | 0.38 | 0.38 | 77 | 1004.3 |
| 20260505022003 | 48 | 259 | 2.0 | 6.0 | 0.00 | 0.38 | 0.38 | 76 | 1004.3 |
| 20260505021004 | 48 | 244 | 2.0 | 7.0 | 0.00 | 0.38 | 0.38 | 75 | 1003.9 |
| 20260505020004 | 48 | 267 | 2.0 | 7.0 | 0.00 | 0.38 | 0.38 | 74 | 1003.6 |
| 20260505015003 | 49 | 276 | 2.0 | 9.0 | 0.00 | 0.38 | 0.38 | 73 | 1003.6 |
| 20260505014004 | 49 | 253 | 2.0 | 11.0 | 0.00 | 0.38 | 0.38 | 73 | 1003.6 |
| 20260505013004 | 49 | 243 | 2.0 | 7.0 | 0.00 | 0.39 | 0.38 | 72 | 1003.2 |
| 20260505012003 | 49 | 262 | 2.0 | 9.0 | 0.00 | 0.40 | 0.38 | 71 | 1003.2 |
| 20260505011004 | 49 | 252 | 2.0 | 6.0 | 0.00 | 0.41 | 0.38 | 69 | 1002.9 |
| 20260505010004 | 49 | 262 | 2.0 | 7.0 | 0.00 | 0.43 | 0.38 | 69 | 1002.6 |
| 20260505005004 | 50 | 252 | 2.0 | 7.0 | 0.00 | 0.47 | 0.38 | 68 | 1002.6 |
| 20260505004003 | 50 | 275 | 2.0 | 7.0 | 0.00 | 0.51 | 0.38 | 68 | 1002.6 |
| 20260505003004 | 50 | 277 | 3.0 | 14.0 | 0.00 | 0.56 | 0.38 | 67 | 1002.6 |
| 20260505002004 | 50 | 269 | 2.0 | 8.0 | 0.00 | 0.58 | 0.38 | 68 | 1001.9 |
| 20260505001003 | 50 | 244 | 2.0 | 7.0 | 0.00 | 0.59 | 0.38 | 69 | 1001.9 |
| 20260505000004 | 51 | 259 | 3.0 | 8.0 | 0.00 | 0.61 | 0.38 | 68 | 1001.9 |
| 20260504235003 | 51 | 271 | 2.0 | 8.0 | 0.00 | 0.64 | 0.38 | 68 | 1001.5 |
| 20260504234003 | 51 | 265 | 2.0 | 7.0 | 0.00 | 0.67 | 0.38 | 68 | 1001.5 |
| 20260504233004 | 51 | 271 | 3.0 | 10.0 | 0.00 | 0.70 | 0.38 | 66 | 1001.2 |
| 20260504232003 | 52 | 244 | 3.0 | 11.0 | 0.00 | 0.73 | 0.38 | 66 | 1001.2 |
| 20260504231004 | 51 | 281 | 2.0 | 13.0 | 0.00 | 0.77 | 0.38 | 67 | 1001.2 |
| 20260504230004 | 52 | 245 | 3.0 | 8.0 | 0.00 | 0.79 | 0.38 | 66 | 1001.2 |
| 20260504225004 | 52 | 239 | 2.0 | 8.0 | 0.00 | 0.81 | 0.38 | 66 | 1000.9 |
| 20260504224003 | 52 | 244 | 2.0 | 8.0 | 0.00 | 0.83 | 0.38 | 64 | 1000.5 |
| 20260504223004 | 52 | 237 | 2.0 | 6.0 | 0.00 | 0.84 | 0.38 | 64 | 1000.5 |
| 20260504222004 | 52 | 259 | 2.0 | 10.0 | 0.00 | 0.86 | 0.38 | 64 | 1000.5 |
| 20260504221003 | 53 | 241 | 4.0 | 14.0 | 0.00 | 0.89 | 0.38 | 62 | 1000.2 |
| 20260504220004 | 53 | 240 | 3.0 | 9.0 | 0.00 | 0.90 | 0.38 | 61 | 1000.2 |
| 20260504215003 | 53 | 230 | 3.0 | 10.0 | 0.00 | 0.92 | 0.38 | 60 | 999.8 |
| 20260504214003 | 54 | 245 | 3.0 | 9.0 | 0.00 | 0.93 | 0.38 | 58 | 1000.2 |
| 20260504213004 | 54 | 232 | 3.0 | 11.0 | 0.00 | 0.95 | 0.38 | 57 | 1000.2 |
| 20260504212004 | 54 | 263 | 4.0 | 17.0 | 0.00 | 0.98 | 0.38 | 56 | 1000.2 |
| 20260504211004 | 54 | 242 | 4.0 | 13.0 | 0.00 | 1.01 | 0.38 | 52 | 1000.2 |
| 20260504210004 | 55 | 218 | 4.0 | 14.0 | 0.00 | 1.03 | 0.38 | 49 | 999.8 |
| 20260504205003 | 56 | 240 | 4.0 | 17.0 | 0.00 | 1.05 | 0.38 | 46 | 999.8 |
| 20260504204003 | 57 | 245 | 4.0 | 15.0 | 0.00 | 1.07 | 0.38 | 44 | 999.5 |
| 20260504203003 | 57 | 252 | 2.0 | 13.0 | 0.00 | 1.08 | 0.38 | 43 | 999.5 |
| 20260504202004 | 57 | 266 | 4.0 | 10.0 | 0.00 | 1.10 | 0.38 | 37 | 999.5 |
| 20260504201004 | 58 | 282 | 5.0 | 15.0 | 0.00 | 1.12 | 0.38 | 35 | 999.2 |
| 20260504200004 | 58 | 276 | 5.0 | 17.0 | 0.00 | 1.16 | 0.38 | 34 | 999.2 |
| 20260504195003 | 59 | 263 | 4.0 | 13.0 | 0.00 | 1.20 | 0.38 | 32 | 998.8 |
| 20260504194003 | 59 | 280 | 5.0 | 14.0 | 0.00 | 1.24 | 0.38 | 32 | 999.2 |
| 20260504193003 | 61 | 283 | 6.0 | 18.0 | 0.00 | 1.27 | 0.38 | 30 | 998.8 |
| 20260504192003 | 62 | 293 | 5.0 | 19.0 | 0.00 | 1.32 | 0.38 | 29 | 998.8 |
| 20260504191003 | 61 | 283 | 6.0 | 16.0 | 0.00 | 1.38 | 0.38 | 30 | 998.8 |
| 20260504190004 | 61 | 284 | 5.0 | 21.0 | 0.00 | 1.45 | 0.38 | 29 | 998.8 |
| 20260504185003 | 61 | 275 | 5.0 | 17.0 | 0.00 | 1.49 | 0.38 | 28 | 998.8 |
| 20260504184003 | 61 | 278 | 5.0 | 18.0 | 0.00 | 1.54 | 0.38 | 29 | 998.8 |
| 20260504183003 | 60 | 290 | 6.0 | 18.0 | 0.00 | 1.58 | 0.38 | 35 | 998.8 |
| 20260504182003 | 59 | 275 | 6.0 | 18.0 | 0.00 | 1.61 | 0.38 | 31 | 998.8 |
| 20260504181003 | 59 | 277 | 6.0 | 18.0 | 0.00 | 1.65 | 0.38 | 32 | 998.8 |
| 20260504180003 | 58 | 284 | 5.0 | 21.0 | 0.00 | 1.68 | 0.38 | 33 | 998.8 |
| 20260504175003 | 58 | 277 | 7.0 | 19.0 | 0.00 | 1.71 | 0.38 | 33 | 998.8 |
| 20260504174003 | 58 | 271 | 6.0 | 17.0 | 0.00 | 1.74 | 0.38 | 34 | 998.8 |
| 20260504173004 | 58 | 278 | 6.0 | 16.0 | 0.00 | 1.76 | 0.38 | 34 | 998.8 |
| 20260504172003 | 57 | 238 | 4.0 | 13.0 | 0.00 | 1.79 | 0.38 | 35 | 998.8 |
| 20260504171003 | 57 | 252 | 6.0 | 16.0 | 0.00 | 1.81 | 0.38 | 36 | 999.2 |